Regional Weather Roundup
Issued by NWS New Orleans/Baton Rouge, LA

Home | Current Version | Previous Version | Text Only | Print | Product List | Glossary Off
Versions: 1 2 3 4 5 6 7 8 9 10 11 12 13 14 15 16 17 18 19 20 21 22 23 24 25 26 27 28 29 30 31 32 33 34 35 36 37 38 39 40 41 42 43 44 45 46 47 48 49 50

642
ASUS44 KLIX 252210
RWRLIX
NEW ORLEANS REGIONAL WEATHER ROUNDUP
NATIONAL WEATHER SERVICE NEW ORLEANS LA
400 PM CST SUN JAN 25 2015

NOTE: "FAIR" INDICATES FEW OR NO CLOUDS BELOW 12,000 FEET WITH NO
      SIGNIFICANT WEATHER AND/OR OBSTRUCTIONS TO VISIBILITY.
      SKY/WX - SKY CONDITION AND SIGNIFICANT WEATHER.
      TMP - AIR TEMPERATURE.     DP    - DEWPOINT TEMPERATURE.
      RH  - RELATIVE HUMIDITY.   PRES  - PRESSURE.
      HI  - HEAT INDEX.          WCI   - WIND CHILL INDEX.

*  THESE STATIONS ARE NOT NWS OR FAA STATIONS AND ARE NOT UNDER
   NWS QUALITY CONTROL.

LAZ038-040-048-061>063-065>067-069-252300-
SOUTHEAST LOUISIANA

CITY           SKY/WX    TMP DP  RH WIND       PRES   REMARKS
N.O. AUDUBON     N/A     62  43  49 MISG        N/A
N.O. INTL ARPT MOSUNNY   66  39  37 SW21G30   29.91F
N.O. LAKEFRONT SUNNY     66  39  37 SW28      29.90F
N.O. DOWNTOWN*   N/A     66  37  34 SW15G24   29.92S
SLIDELL        SUNNY     65  39  38 SW8G23    29.88S
BATON ROUGE    SUNNY     67  38  34 SW23G31   29.87F
BOOTHVILLE     MOSUNNY   62  53  72 SW18G30   29.96F
BELLE CHASSE   MOSUNNY   65  35  33 SW20G36   29.92F
BOGALUSA*        N/A     68  38  32 SW14      29.85F
GALLIANO*      CLEAR     65  41  40 MISG      29.96F
NEW ROADS*       N/A     67  43  42 MISG      29.88S
GONZALES*        N/A     65  38  36 SW17G23   29.90F
HAMMOND*       SUNNY     68  34  28 SW15G29   29.87F
HOUMA*         SUNNY     63  43  48 W20G29    29.96F
PORT FOURCHON* CLEAR     61  50  67 W15G26    30.01F

$$

MSZ070-080>082-252300-
SOUTHERN MISSISSIPPI

CITY           SKY/WX    TMP DP  RH WIND       PRES   REMARKS
MCCOMB         SUNNY     67  38  34 SW17      29.82F
GULFPORT       SUNNY     63  40  42 SW10G22   29.87F
BILOXI         SUNNY     61  46  56 SW14      29.87F
PASCAGOULA     SUNNY     60  48  64 SW9G16    29.87F
STENNIS ARPT*  SUNNY     64  34  32 SW12G26   29.89S

$$

COASTAL OBSERVATIONS
LAKE AND NEARSHORE STATIONS

STATION/POSITION TIME  TEMP    WIND        PRES    WAVE
                       AIR SEA DIR/SP/G            HT/PER
                 (UTC) (F)     (DEG/KT/KT) (MB)    (FT/S)
PASCAGOULA       2200   60     230/ 16/ 21 1011.4
WAVELAND YACHT   2200   64     250/ 17/ 22 1010.8
GRAND ISLE       2200   61 58  260/ 18/ 24 1015.2
SOUTHWEST PASS   2200   62 47  250/ 26/ 30 1015.5
NEW CANAL        2200   65 53  240/ 13/ 21 1012.8
SHELL BEACH      2200   64 54  230/ 26/ 30 1012.4

OFFSHORE STATIONS

STATION/POSITION TIME  TEMP    WIND        PRES    WAVE
                       AIR SEA DIR/SP/G            HT/PER
                 (UTC) (F)     (DEG/KT/KT) (MB)    (FT/S)
64 S DAUPHIN ISL 2144   63 71  250/ 27/ 31 1014.4    5/ 4

$$




USA.gov is the U.S. government's official web portal to all federal, state and local government web resources and services.